| time (UTC) | temp F | wind direction | speed MPH | gust MPH | rain 1hr in | rain 24hr in | rain mn in | humidity % | barometer mb |
| 20260508153101 | 84 | 299 | 3.0 | 7.0 | 0.00 | 0.00 | 0.00 | 18 | 1008.0 |
| 20260508151603 | 83 | 153 | 3.0 | 6.0 | 0.00 | 0.00 | 0.00 | 18 | 1008.0 |
| 20260508150100 | 81 | 203 | 2.0 | 6.0 | 0.00 | 0.00 | 0.00 | 19 | 1008.1 |
| 20260508150001 | 81 | 220 | 2.0 | 6.0 | 0.00 | 0.00 | 0.00 | 19 | 1008.1 |
| 20260508144614 | 80 | 165 | 1.0 | 6.0 | 0.00 | 0.00 | 0.00 | 21 | 1008.1 |
| 20260508143102 | 78 | 207 | 2.0 | 5.0 | 0.00 | 0.00 | 0.00 | 21 | 1008.1 |
| 20260508143000 | 78 | 229 | 2.0 | 5.0 | 0.00 | 0.00 | 0.00 | 21 | 1008.1 |
| 20260508141505 | 77 | 140 | 2.0 | 6.0 | 0.00 | 0.00 | 0.00 | 21 | 1008.1 |
| 20260508140101 | 76 | 168 | 1.0 | 3.0 | 0.00 | 0.00 | 0.00 | 21 | 1007.9 |
| 20260508134600 | 74 | 157 | 2.0 | 4.0 | 0.00 | 0.00 | 0.00 | 21 | 1007.7 |
| 20260508133100 | 74 | 147 | 1.0 | 3.0 | 0.00 | 0.00 | 0.00 | 21 | 1007.6 |
| 20260508131608 | 74 | 160 | 2.0 | 5.0 | 0.00 | 0.00 | 0.00 | 20 | 1007.4 |
| 20260508130100 | 74 | 137 | 2.0 | 6.0 | 0.00 | 0.00 | 0.00 | 20 | 1007.3 |
| 20260508124600 | 74 | 134 | 3.0 | 5.0 | 0.00 | 0.00 | 0.00 | 20 | 1007.1 |
| 20260508123116 | 74 | 136 | 3.0 | 5.0 | 0.00 | 0.00 | 0.00 | 20 | 1007.0 |
| 20260508121609 | 74 | 130 | 3.0 | 5.0 | 0.00 | 0.00 | 0.00 | 20 | 1007.0 |
| 20260508120111 | 74 | 162 | 3.0 | 7.0 | 0.00 | 0.00 | 0.00 | 20 | 1006.9 |
| 20260508120002 | 74 | 153 | 3.0 | 7.0 | 0.00 | 0.00 | 0.00 | 20 | 1006.9 |
| 20260508114601 | 74 | 167 | 5.0 | 7.0 | 0.00 | 0.00 | 0.00 | 20 | 1006.9 |
| 20260508113108 | 75 | 145 | 4.0 | 5.0 | 0.00 | 0.00 | 0.00 | 19 | 1007.0 |
| 20260508111556 | 75 | 154 | 3.0 | 7.0 | 0.00 | 0.00 | 0.00 | 19 | 1006.9 |
| 20260508110107 | 75 | 154 | 4.0 | 7.0 | 0.00 | 0.00 | 0.00 | 19 | 1006.9 |
| 20260508104557 | 75 | 145 | 4.0 | 7.0 | 0.00 | 0.00 | 0.00 | 18 | 1006.9 |
| 20260508103105 | 76 | 129 | 5.0 | 8.0 | 0.00 | 0.00 | 0.00 | 18 | 1006.9 |
| 20260508101557 | 76 | 142 | 5.0 | 10.0 | 0.00 | 0.00 | 0.00 | 17 | 1006.8 |
| 20260508100055 | 76 | 124 | 4.0 | 6.0 | 0.00 | 0.00 | 0.00 | 17 | 1006.8 |
| 20260508094555 | 77 | 178 | 3.0 | 8.0 | 0.00 | 0.00 | 0.00 | 16 | 1006.8 |
| 20260508093105 | 77 | 153 | 5.0 | 8.0 | 0.00 | 0.00 | 0.00 | 16 | 1006.6 |
| 20260508091556 | 78 | 149 | 3.0 | 10.0 | 0.00 | 0.00 | 0.00 | 15 | 1006.7 |
| 20260508084558 | 79 | 134 | 4.0 | 8.0 | 0.00 | 0.00 | 0.00 | 13 | 1006.9 |
| 20260508083102 | 79 | 140 | 5.0 | 9.0 | 0.00 | 0.00 | 0.00 | 13 | 1006.8 |
| 20260508081601 | 79 | 157 | 4.0 | 9.0 | 0.00 | 0.00 | 0.00 | 13 | 1006.9 |
| 20260508080056 | 79 | 149 | 4.0 | 9.0 | 0.00 | 0.00 | 0.00 | 13 | 1007.0 |
| 20260508074557 | 79 | 136 | 4.0 | 8.0 | 0.00 | 0.00 | 0.00 | 13 | 1006.9 |
| 20260508073058 | 79 | 159 | 4.0 | 8.0 | 0.00 | 0.00 | 0.00 | 13 | 1007.0 |
| 20260508071558 | 79 | 136 | 3.0 | 7.0 | 0.00 | 0.00 | 0.00 | 13 | 1007.0 |
| 20260508070058 | 79 | 138 | 4.0 | 8.0 | 0.00 | 0.00 | 0.00 | 12 | 1007.0 |
| 20260508064558 | 80 | 148 | 5.0 | 9.0 | 0.00 | 0.00 | 0.00 | 12 | 1007.0 |
| 20260508063107 | 80 | 145 | 4.0 | 7.0 | 0.00 | 0.00 | 0.00 | 12 | 1007.0 |
| 20260508061601 | 81 | 140 | 4.0 | 9.0 | 0.00 | 0.00 | 0.00 | 12 | 1007.0 |
| 20260508060058 | 81 | 165 | 4.0 | 8.0 | 0.00 | 0.00 | 0.00 | 12 | 1006.9 |
| 20260508054558 | 81 | 165 | 3.0 | 6.0 | 0.00 | 0.00 | 0.00 | 12 | 1007.0 |
| 20260508053107 | 81 | 148 | 4.0 | 8.0 | 0.00 | 0.00 | 0.00 | 12 | 1007.0 |
| 20260508051558 | 81 | 152 | 3.0 | 7.0 | 0.00 | 0.00 | 0.00 | 12 | 1007.1 |
| 20260508044558 | 82 | 146 | 4.0 | 7.0 | 0.00 | 0.00 | 0.00 | 13 | 1007.1 |
| 20260508043104 | 83 | 152 | 4.0 | 7.0 | 0.00 | 0.00 | 0.00 | 13 | 1007.0 |
| 20260508041601 | 83 | 153 | 4.0 | 7.0 | 0.00 | 0.00 | 0.00 | 14 | 1007.0 |
| 20260508040059 | 83 | 140 | 4.0 | 7.0 | 0.00 | 0.00 | 0.00 | 13 | 1006.9 |
| 20260508034611 | 84 | 148 | 3.0 | 6.0 | 0.00 | 0.00 | 0.00 | 13 | 1006.7 |
| 20260508033058 | 85 | 230 | 1.0 | 6.0 | 0.00 | 0.00 | 0.00 | 13 | 1006.6 |
| 20260508031558 | 86 | 110 | 4.0 | 7.0 | 0.00 | 0.00 | 0.00 | 11 | 1006.4 |
| 20260508030059 | 87 | 134 | 3.0 | 5.0 | 0.00 | 0.00 | 0.00 | 11 | 1006.3 |
| 20260508024557 | 87 | 117 | 5.0 | 8.0 | 0.00 | 0.00 | 0.00 | 11 | 1006.1 |
| 20260508023157 | 88 | 108 | 3.0 | 8.0 | 0.00 | 0.00 | 0.00 | 10 | 1006.1 |
| 20260508021601 | 88 | 132 | 2.0 | 7.0 | 0.00 | 0.00 | 0.00 | 10 | 1006.0 |
| 20260508014559 | 88 | 57 | 1.0 | 6.0 | 0.00 | 0.00 | 0.00 | 11 | 1005.9 |
| 20260508013101 | 89 | 307 | 1.0 | 6.0 | 0.00 | 0.00 | 0.00 | 11 | 1006.0 |
| 20260508011604 | 90 | 16 | 3.0 | 8.0 | 0.00 | 0.00 | 0.00 | 10 | 1005.9 |
| 20260508010057 | 91 | 22 | 4.0 | 8.0 | 0.00 | 0.00 | 0.00 | 10 | 1006.0 |
| 20260508004558 | 92 | 5 | 0.0 | 3.0 | 0.00 | 0.00 | 0.00 | 9 | 1006.2 |
| 20260508003059 | 92 | 345 | 2.0 | 6.0 | 0.00 | 0.00 | 0.00 | 10 | 1006.2 |
| 20260508001622 | 91 | 15 | 2.0 | 9.0 | 0.00 | 0.00 | 0.00 | 10 | 1006.3 |
| 20260508000100 | 92 | 15 | 3.0 | 9.0 | 0.00 | 0.00 | 0.00 | 10 | 1006.5 |
| 20260507234557 | 92 | 123 | 3.0 | 8.0 | 0.00 | 0.00 | 0.00 | 10 | 1006.5 |
| 20260507233056 | 92 | 336 | 3.0 | 6.0 | 0.00 | 0.00 | 0.00 | 9 | 1006.6 |
| 20260507231557 | 94 | 307 | 2.0 | 5.0 | 0.00 | 0.00 | 0.00 | 9 | 1006.8 |
| 20260507230057 | 93 | 20 | 3.0 | 8.0 | 0.00 | 0.00 | 0.00 | 9 | 1007.0 |
| 20260507224601 | 94 | 16 | 2.0 | 4.0 | 0.00 | 0.00 | 0.00 | 9 | 1007.3 |
| 20260507223057 | 92 | 200 | 1.0 | 6.0 | 0.00 | 0.00 | 0.00 | 10 | 1007.5 |
| 20260507221558 | 92 | 21 | 4.0 | 10.0 | 0.00 | 0.00 | 0.00 | 10 | 1007.8 |
| 20260507220058 | 91 | 338 | 1.0 | 9.0 | 0.00 | 0.00 | 0.00 | 10 | 1008.2 |
| 20260507214607 | 92 | 113 | 2.0 | 6.0 | 0.00 | 0.00 | 0.00 | 10 | 1008.4 |
| 20260507213057 | 91 | 51 | 3.0 | 9.0 | 0.00 | 0.00 | 0.00 | 10 | 1008.9 |
| 20260507211659 | 90 | 5 | 2.0 | 5.0 | 0.00 | 0.00 | 0.00 | 11 | 1009.1 |
| 20260507210057 | 91 | 157 | 2.0 | 10.0 | 0.00 | 0.00 | 0.00 | 10 | 1009.4 |
| 20260507204600 | 92 | 309 | 1.0 | 6.0 | 0.00 | 0.00 | 0.00 | 10 | 1009.8 |
| 20260507203057 | 90 | 152 | 2.0 | 8.0 | 0.00 | 0.00 | 0.00 | 10 | 1010.1 |
| 20260507201600 | 90 | 5 | 4.0 | 8.0 | 0.00 | 0.00 | 0.00 | 11 | 1010.3 |
| 20260507200109 | 89 | 355 | 3.0 | 9.0 | 0.00 | 0.00 | 0.00 | 10 | 1010.5 |
| 20260507194558 | 89 | 355 | 2.0 | 8.0 | 0.00 | 0.00 | 0.00 | 11 | 1010.8 |
| 20260507193058 | 88 | 251 | 1.0 | 6.0 | 0.00 | 0.00 | 0.00 | 10 | 1010.9 |
| 20260507191559 | 88 | 5 | 3.0 | 7.0 | 0.00 | 0.00 | 0.00 | 10 | 1011.2 |
| 20260507190058 | 88 | 5 | 1.0 | 5.0 | 0.00 | 0.00 | 0.00 | 9 | 1011.7 |
| 20260507184605 | 85 | 338 | 2.0 | 6.0 | 0.00 | 0.00 | 0.00 | 10 | 1012.0 |
| 20260507183056 | 86 | 31 | 1.0 | 5.0 | 0.00 | 0.00 | 0.00 | 10 | 1012.1 |
| 20260507181604 | 85 | 17 | 2.0 | 5.0 | 0.00 | 0.00 | 0.00 | 10 | 1012.3 |
| 20260507180057 | 84 | 39 | 3.0 | 8.0 | 0.00 | 0.00 | 0.00 | 10 | 1012.5 |
| 20260507174609 | 82 | 44 | 1.0 | 5.0 | 0.00 | 0.00 | 0.00 | 10 | 1012.7 |
| 20260507173057 | 82 | 307 | 3.0 | 6.0 | 0.00 | 0.00 | 0.00 | 10 | 1012.8 |
| 20260507171603 | 81 | 10 | 4.0 | 9.0 | 0.00 | 0.00 | 0.00 | 11 | 1012.8 |
| 20260507170058 | 80 | 355 | 3.0 | 6.0 | 0.00 | 0.00 | 0.00 | 12 | 1013.0 |
| 20260507164557 | 79 | 348 | 2.0 | 6.0 | 0.00 | 0.00 | 0.00 | 12 | 1013.2 |
| 20260507163057 | 79 | 355 | 4.0 | 8.0 | 0.00 | 0.00 | 0.00 | 13 | 1013.2 |
| 20260507161557 | 77 | 5 | 2.0 | 5.0 | 0.00 | 0.00 | 0.00 | 13 | 1013.4 |
| 20260507160056 | 76 | 11 | 1.0 | 4.0 | 0.00 | 0.00 | 0.00 | 14 | 1013.4 |
| 20260507154603 | 76 | 318 | 3.0 | 5.0 | 0.00 | 0.00 | 0.00 | 14 | 1013.5 |